Regional Weather Roundup
Issued by NWS

Home | Current Version | Previous Version | Graphics & Text | Print | Product List | Glossary On
Versions: 1 2 3 4 5 6 7 8 9 10 11 12 13 14 15 16 17 18 19 20 21 22 23 24 25 26 27 28 29 30 31 32 33 34 35 36 37 38 39 40 41 42 43 44 45 46 47 48 49 50
000
ASUS43 KOAX 041802
RWRNE

WEATHER ROUNDUP FOR NEBRASKA
NATIONAL WEATHER SERVICE OMAHA NE
100 PM CDT SAT JUL 04 2015

NOTES: SATELLITE DATA IS BEING USED TO AUGMENT CLOUD COVER ABOVE
       12000 FEET.
       "FAIR" INDICATES FEW OR NO CLOUDS BELOW 12,000 FEET WITH NO
       SIGNIFICANT WEATHER AND/OR OBSTRUCTIONS TO VISIBILITY.

  * THESE STATIONS DO NOT REPORT WEATHER SUCH AS RAIN...SNOW OR FOG.

NEZ001>004-019>022-054>056-041900-
NEBRASKA PANHANDLE

CITY           SKY/WX    TMP DP  RH WIND       PRES   REMARKS
SCOTTSBLUFF    SUNNY     86  64  47 SE10G17   29.92S
6HR MIN TEMP:  65; 6HR MAX TEMP:  86;

ALLIANCE       SUNNY     83  65  54 S16G22    29.91F
6HR MIN TEMP:  63; 6HR MAX TEMP:  83;

CHADRON        SUNNY     86  65  49 SE7       29.85F
6HR MIN TEMP:  67; 6HR MAX TEMP:  86;

KIMBALL          N/A    N/A N/A N/A MISG        N/A
SIDNEY         SUNNY     88  62  41 SE12      29.96F
6HR MIN TEMP:  64; 6HR MAX TEMP:  88;

$$

NEZ057>060-069>072-079>082-041900-
SOUTHWEST NEBRASKA

CITY           SKY/WX    TMP DP  RH WIND       PRES   REMARKS
NORTH PLATTE   SUNNY     85  64  49 S13       29.93S
6HR MIN TEMP:  63; 6HR MAX TEMP:  86;

IMPERIAL       SUNNY     89  61  38 S14G24    29.93F
6HR MIN TEMP:  63; 6HR MAX TEMP:  89;

MCCOOK         SUNNY     88  62  41 S15G24    29.93F
6HR MIN TEMP:  62; 6HR MAX TEMP:  89;

$$

NEZ005>010-023>029-035>040-094-041900-
NORTH CENTRAL NEBRASKA

CITY           SKY/WX    TMP DP  RH WIND       PRES   REMARKS
VALENTINE      SUNNY     86  64  47 S12G22    29.88F
6HR MIN TEMP:  64; 6HR MAX TEMP:  86;

AINSWORTH      SUNNY     84  64  49 S13G21    29.91F
BROKEN BOW     SUNNY     83  65  54 S15G24    29.94F
6HR MIN TEMP:  62; 6HR MAX TEMP:  83;

ORD            MOSUNNY   82  64  54 S12       29.93F
6HR MIN TEMP:  59; 6HR MAX TEMP:  82;

$$

NEZ041-046>049-061>064-073>077-083>087-041900-
SOUTH CENTRAL NEBRASKA

CITY           SKY/WX    TMP DP  RH WIND       PRES   REMARKS
GRAND ISLAND   MOSUNNY   81  64  56 S14       29.98F
6HR MIN TEMP:  61; 6HR MAX TEMP:  81;

AURORA         PTSUNNY   78  66  67 S13       29.99S
HASTINGS       MOSUNNY   80  65  59 S9        29.98F
6HR MIN TEMP:  63; 6HR MAX TEMP:  81;

KEARNEY *      SUNNY     81  66  61 S16       29.96F
$$

NEZ011>018-030>034-042>045-041900-
NORTHEAST NEBRASKA

CITY           SKY/WX    TMP DP  RH WIND       PRES   REMARKS
NORFOLK        PTSUNNY   77  65  66 S10       29.97S
6HR MIN TEMP:  58; 6HR MAX TEMP:  78;

BLAIR          MOSUNNY   78  59  52 S10       29.99F
COLUMBUS *     CLOUDY    75  61  60 SE9       30.00S
FREMONT        PTSUNNY   79  62  56 SE8       29.99F
TEKAMAH        MOSUNNY   82  62  50 S9        29.97F
6HR MIN TEMP:  56; 6HR MAX TEMP:  82;

$$

NEZ050>053-065>068-078-088>093-041900-
SOUTHEAST NEBRASKA

CITY           SKY/WX    TMP DP  RH WIND       PRES   REMARKS
LINCOLN        PTSUNNY   80  64  58 SE14      29.99F
6HR MIN TEMP:  60; 6HR MAX TEMP:  80;

OMAHA EPPLEY   PTSUNNY   79  60  52 S12       29.99F
6HR MIN TEMP:  58; 6HR MAX TEMP:  79;

FALLS CITY     MOSUNNY   79  60  52 SE8       29.99F
6HR MIN TEMP:  59; 6HR MAX TEMP:  80;

$$

NEZ044-045-051>053-067-041900-
OMAHA AREA

CITY           SKY/WX    TMP DP  RH WIND       PRES   REMARKS
OMAHA EPPLEY   PTSUNNY   79  60  52 S12       29.99F
6HR MIN TEMP:  58; 6HR MAX TEMP:  79;

BLAIR          MOSUNNY   78  59  52 S10       29.99F
FREMONT        PTSUNNY   79  62  56 SE8       29.99F
OFFUTT AFB     MOSUNNY   79  62  57 S8        29.99F
$$



USA.gov is the U.S. government's official web portal to all federal, state and local government web resources and services.